Location: Goll?ig?dem
(16.6773°N, 80.7332°E)
Time: 01:08:25
(UTC+00:00)

Cosmos 2237 - Pass Details

Date: 21 April 2021
Orbit: 846 x 855 km, 70.8° (Epoch: 07 May)

Event Time Altitude Azimuth Distance (km) Brightness Sun altitude
Rises 13:39:43 0° 348° (NNW) 3,405 7.8 -11.4°
Reaches altitude 10° 13:42:11 10° 352° (N) 2,467 7.0 -12.0°
Maximum altitude 13:47:48 62° 73° (ENE) 943 4.2 -13.3°
Drops below altitude 10° 13:53:22 10° 153° (SSE) 2,459 6.2 -14.6°
Enters shadow 13:53:34 - 153° (SSE) 2,529 6.3 -14.6°
